Regional Weather Roundup
Issued by NWS

Home | Current Version | Previous Version | Graphics & Text | Print | Product List | Glossary On
Versions: 1 2 3 4 5 6 7 8 9 10 11 12 13 14 15 16 17 18 19 20 21 22 23 24 25 26 27 28 29 30 31 32 33 34 35 36 37 38 39 40 41 42 43 44 45 46 47 48 49 50
000
ASUS43 KDTX 161610
RWRMI
MICHIGAN HOURLY REGIONAL WEATHER ROUNDUP
NATIONAL WEATHER SERVICE DETROIT/PONTIAC MI
1100 AM EST MON JAN 16 2017

NOTE: "FAIR" INDICATES FEW OR NO CLOUDS BELOW 12,000 FEET WITH NO
SIGNIFICANT WEATHER AND/OR OBSTRUCTION TO VISIBILITY.

MIZ047>049-052>055-059>063-066>070-074>076-081>083-161700-
SOUTHEAST LOWER MICHIGAN

CITY           SKY/WX    TMP DP  RH WIND       PRES   REMARKS
ADRIAN         CLOUDY    31  27  85 E5        30.33S FOG     WCI  26
ALMA           CLOUDY    28  25  88 CALM      30.32S FOG
ANN ARBOR      CLOUDY    31  27  85 E3        30.33S FOG
BAD AXE        CLOUDY    28  24  84 S3        30.33S
CARO           CLOUDY    28  25  87 CALM      30.32S
DETROIT CITY   CLOUDY    30  27  88 CALM      30.36R FOG
DETROIT        CLOUDY    31  27  85 CALM      30.36R FOG
FLINT          CLOUDY    29  24  82 VRB6      30.33R WCI  23
GROSSE ILE     CLOUDY    31  28  88 CALM      30.34S FOG
HILLSDALE      CLOUDY    32  30  93 E6        30.29S FOG     WCI  26
HOWELL         CLOUDY    29  26  86 CALM      30.31S FOG

CITY           SKY/WX    TMP DP  RH WIND       PRES   REMARKS
JACKSON        MIX PCPN  32  27  81 CALM      30.31F
LAMBERTVILLE   CLOUDY    33  28  82 CALM      30.34R HAZE
LANSING        SLEET     31  22  69 S7        30.32S WCI  24
LAPEER         FAIR      28  24  82 CALM      30.32S
MASON          LGT SNOW  30  28  90 S3        30.31S
MONROE         CLOUDY    33  30  92 E3        30.34S FOG
MT. CLEMENS    CLOUDY    30  29  97 CALM      30.33S
PONTIAC        LGTSLEET  28  24  85 SE3       30.31S FOG
PORT HOPE        N/A     31  23  72 SW7       30.31S WCI  24
PORT HURON     PTSUNNY   28  27  93 CALM      30.35S FOG
TRI CITIES     CLOUDY    28  24  85 S5        30.33R FOG     WCI  23
MIDLAND        FAIR      27  23  85 CALM      30.32R FOG
TROY           CLOUDY    29  24  84 CALM      30.36S HAZE
SAGINAW HB     CLOUDY    30  23  74 CALM      30.33R
$$
MIZ043>046-050>051-056>058-064>065-071>073-077>080-161700-
SOUTHWEST LOWER MICHIGAN

CITY           SKY/WX    TMP DP  RH WIND       PRES   REMARKS
BATTLE CREEK   CLOUDY    31  26  82 E3        30.30S
BENTON HARBOR  CLOUDY    34  29  82 E6        30.28S HAZE    WCI  29
BIG RAPIDS     CLOUDY    21  19  91 CALM      30.28S FOG
COLDWATER      CLOUDY    34  30  85 E3        30.30S HAZE
FREMONT        CLOUDY    29  24  80 SE5       30.28F WCI  24
HOLLAND        FRZ RAIN  31  28  89 SE7       30.29F WCI  24
GRAND RAPIDS   FRZ RAIN  30  24  78 SE3       30.30S
IONIA          LGT SNOW  29  26  88 CALM      30.30S
KALAMAZOO      FRZ DRZL  33  27  78 CALM      30.31R
LUDINGTON      CLOUDY    29  29 100 CALM      30.28S FOG
MARSHALL       MIX PCPN  32  28  83 E3        30.29F
MOUNT PLEASANT CLOUDY    28  24  88 CALM      30.30S FOG
MUSKEGON       FRZ RAIN  30  26  85 SE8       30.30S FOG     WCI  22
SOUTH HAVEN    MIX PCPN  32  30  92 SE5       30.28F WCI  27
$$
MIZ016>042-161700-
NORTHERN LOWER MICHIGAN

CITY           SKY/WX    TMP DP  RH WIND       PRES   REMARKS
ALPENA         CLOUDY    27  21  78 SW6       30.27S WCI  20
BEAVER ISLAND  CLOUDY    32  25  74 SW12      30.23S WCI  23
BELLAIRE       CLOUDY    20  20  96 CALM      30.29R FOG
CADILLAC       CLOUDY    26  24  93 S3        30.24S FOG
CHARLEVOIX     CLOUDY    32  30  92 S6        30.29R WCI  26
FRANKFORT      MOSUNNY   28  27  99 CALM      30.27S
GAYLORD        CLOUDY    24  21  88 SW3       30.24R FOG
GRAYLING       CLOUDY    16  13  89 CALM      30.26S
HARBOR SPRINGS CLOUDY    31  27  84 SW9       30.25S WCI  23
HOUGHTON LAKE  CLOUDY    19  17  92 CALM      30.27F
MANISTEE       PTSUNNY   23  22  96 E5        30.28F FOG     WCI  17
OSCODA         CLOUDY    25  22  89 SW8       30.30S FOG     WCI  16
PELLSTON       CLOUDY    32  25  75 SW6       30.24R WCI  26
ROGERS CITY    CLOUDY    32  24  71 SW14G20   30.24S WCI  22
TRAVERSE CITY  CLOUDY    27  27 100 CALM      30.27R FOG
$$
MIZ007>008-015-161700-
EASTERN UPPER MICHIGAN

CITY           SKY/WX    TMP DP  RH WIND       PRES   REMARKS
KINROSS        CLOUDY    32  25  75 SW8       30.20S WCI  25
MACKINAC ISLAN CLOUDY    32  28  83 SW14G25   30.21R WCI  22
NEWBERRY       CLOUDY    22  15  75 SW7       30.19R WCI  14
S. S. MARIE    CLOUDY    24  20  84 W3        30.20R
$$
MIZ004>006-011>014-085-161700-
CENTRAL UPPER MICHIGAN

CITY           SKY/WX    TMP DP  RH WIND       PRES   REMARKS
MANISTIQUE     CLOUDY    25  16  69 SW3       30.22R
ESCANABA       CLOUDY    22  15  75 W3        30.24R
SAWYER-GWINN   SUNNY     19  14  79 CALM      30.16R
$$
MIZ001>003-009>011-084-161700-
WESTERN UPPER MICHIGAN

CITY           SKY/WX    TMP DP  RH WIND       PRES   REMARKS
IRON MOUNTAIN  CLOUDY    23  11  60 NW3       30.17F
HOUGHTON       SUNNY     27  19  72 W12       30.13R WCI  17
COPPER HARBOR    N/A     34  27  75 NW5       30.14R WCI  30
IRONWOOD       SUNNY     27  17  66 CALM      30.15F
$$

ABBREVIATIONS USED IN REMARKS
   TC - TEMPERATURE IN CELSIUS
  WCI - WIND CHILL INDEX
   HX - HEAT INDEX
  VSB - VISIBILITY





USA.gov is the U.S. government's official web portal to all federal, state and local government web resources and services.